Two Harbors, MN

7:10 AM CDT on April 25, 2017 (GMT -0500)
Helgeson

Weather History for KTWM - July, 2013

Change the Weather History Date:

Tuesday, July 16, 2013

  Actual Average Record
Temperature  
Mean Temperature 73 °F -  
Max Temperature 87 °F 76 °F 91 °F (2012)
Min Temperature 59 °F 53 °F 42 °F (1951)
Cooling Degree Days 8    
Growing Degree Days 23 (Base 50)    
Moisture  
Dew Point 63 °F    
Average Humidity 74    
Maximum Humidity 83    
Minimum Humidity 46    
Precipitation  
Precipitation 0.00 in - - ()
Sea Level Pressure  
Sea Level Pressure 30.16 in    
Wind  
Wind Speed 4 mph (SW)    
Max Wind Speed 16 mph    
Max Gust Speed 22 mph    
Visibility 8 miles    
Events      
Averages and records for this station are not official NWS values.
T = Trace of Precipitation, MM = Missing Value Source: NWS Daily Summary

Daily Weather History Graph

Daily Weather History Graph

Search for Another Location

Airport or City:

Trip Planner

Search our weather history database for the weather conditions in past years. The results will help you decide how hot, cold, wet, or windy it might be!

Date:

Astronomy

Jul. 16, 2013 Rise Set
Actual Time 5:28 AM CDT 8:57 PM CDT
Civil Twilight 4:50 AM CDT 9:35 PM CDT
Nautical Twilight 3:59 AM CDT 10:25 PM CDT
Astronomical Twilight 2:53 AM CDT 11:31 PM CDT
Moon 2:29 PM CDT (7/16) 12:10 AM CDT (7/16)
Length of Visible Light 16h 44m
Length of Day
15h 29m
First Quarter, 56% of the Moon is Illuminated
Jul 16
First Quarter
Jul 22
Full
Jul 29
Last Quarter
Aug 6
New
Aug 14
First Quarter

Hourly Weather History & Observations

Time (CDT) Temp. Heat Index Dew Point Humidity Pressure Visibility Wind Dir Wind Speed Gust Speed Precip Events Conditions
12:13 AM 62.6 °F - 57.2 °F 82% 30.19 in 7.0 mi North 4.6 mph - N/A   Clear
12:33 AM 62.6 °F - 57.2 °F 82% 30.19 in 7.0 mi North 3.5 mph - N/A   Clear
12:53 AM 62.6 °F - 57.2 °F 82% 30.19 in 7.0 mi NNE 3.5 mph - N/A   Clear
1:14 AM 62.6 °F - 57.2 °F 82% 30.19 in 7.0 mi North 3.5 mph - N/A   Clear
1:33 AM 62.6 °F - 57.2 °F 82% 30.19 in 7.0 mi Calm Calm - N/A   Clear
1:54 AM 62.6 °F - 57.2 °F 82% 30.19 in 7.0 mi Calm Calm - N/A   Clear
2:13 AM 60.8 °F - 55.4 °F 82% 30.19 in 5.0 mi Calm Calm - N/A   Haze
2:34 AM 60.8 °F - 55.4 °F 82% 30.19 in 4.0 mi Calm Calm - N/A   Haze
2:53 AM 60.8 °F - 55.4 °F 82% 30.18 in 4.0 mi Calm Calm - N/A   Haze
3:13 AM 60.8 °F - 55.4 °F 82% 30.18 in 3.0 mi Calm Calm - N/A   Haze
3:34 AM 59.0 °F - 53.6 °F 82% 30.18 in 3.0 mi Calm Calm - N/A   Haze
3:53 AM 59.0 °F - 53.6 °F 82% 30.18 in 3.0 mi Calm Calm - N/A   Haze
4:13 AM 59.0 °F - 53.6 °F 82% 30.17 in 3.0 mi Calm Calm - N/A   Haze
4:34 AM 59.0 °F - 53.6 °F 82% 30.17 in 5.0 mi Calm Calm - N/A   Haze
4:53 AM 59.0 °F - 53.6 °F 82% 30.17 in 4.0 mi Calm Calm - N/A   Haze
5:13 AM 60.8 °F - 55.4 °F 82% 30.17 in 5.0 mi Calm Calm - N/A   Haze
5:34 AM 59.0 °F - 53.6 °F 82% 30.17 in 3.0 mi Calm Calm - N/A   Haze
5:53 AM 60.8 °F - 55.4 °F 82% 30.17 in 2.5 mi Calm Calm - N/A   Haze
6:13 AM 60.8 °F - 55.4 °F 82% 30.18 in 2.5 mi Calm Calm - N/A   Haze
6:34 AM 60.8 °F - 55.4 °F 82% 30.17 in 3.0 mi Calm Calm - N/A   Haze
6:53 AM 60.8 °F - 55.4 °F 82% 30.18 in 4.0 mi Calm Calm - N/A   Haze
7:13 AM 60.8 °F - 55.4 °F 82% 30.18 in 4.0 mi Calm Calm - N/A   Haze
7:34 AM 62.6 °F - 57.2 °F 82% 30.17 in 4.0 mi Calm Calm - N/A   Haze
7:53 AM 62.6 °F - 57.2 °F 82% 30.17 in 5.0 mi Calm Calm - N/A   Haze
8:13 AM 64.4 °F - 59.0 °F 83% 30.17 in 7.0 mi Calm Calm - N/A   Clear
8:34 AM 66.2 °F - 60.8 °F 83% 30.17 in 10.0 mi Calm Calm - N/A   Clear
8:53 AM 69.8 °F - 62.6 °F 78% 30.17 in 10.0 mi Calm Calm - N/A   Clear
9:13 AM 71.6 °F - 64.4 °F 78% 30.17 in 10.0 mi SSW 3.5 mph - N/A   Clear
9:34 AM 73.4 °F - 64.4 °F 73% 30.17 in 10.0 mi SSW 6.9 mph - N/A   Clear
9:53 AM 75.2 °F - 66.2 °F 73% 30.16 in 10.0 mi SSW 5.8 mph - N/A   Clear
10:13 AM 75.2 °F - 68.0 °F 78% 30.16 in 10.0 mi South 4.6 mph - N/A   Clear
10:34 AM 78.8 °F - 69.8 °F 74% 30.15 in 10.0 mi South 8.1 mph - N/A   Clear
10:53 AM 78.8 °F - 69.8 °F 74% 30.15 in 10.0 mi South 9.2 mph - N/A   Clear
11:13 AM 78.8 °F - 69.8 °F 74% 30.15 in 10.0 mi South 9.2 mph - N/A   Clear
11:34 AM 78.8 °F - 69.8 °F 74% 30.15 in 10.0 mi South 8.1 mph - N/A   Clear
11:53 AM 80.6 °F 83.9 °F 69.8 °F 70% 30.14 in 10.0 mi South 10.4 mph 16.1 mph N/A   Clear
12:13 PM 80.6 °F 83.9 °F 69.8 °F 70% 30.14 in 10.0 mi SSW 11.5 mph - N/A   Clear
12:34 PM 82.4 °F 86.3 °F 69.8 °F 66% 30.14 in 10.0 mi SSW 10.4 mph - N/A   Clear
12:53 PM 82.4 °F 87.2 °F 71.6 °F 70% 30.14 in 10.0 mi South 11.5 mph 17.3 mph N/A   Clear
1:13 PM 84.2 °F 89.6 °F 71.6 °F 66% 30.14 in 10.0 mi SSW 15.0 mph 20.7 mph N/A   Clear
1:34 PM 84.2 °F 89.6 °F 71.6 °F 66% 30.13 in 10.0 mi SSW 15.0 mph 21.9 mph N/A   Scattered Clouds
1:53 PM 86.0 °F 91.8 °F 71.6 °F 62% 30.13 in 10.0 mi South 12.7 mph 16.1 mph N/A   Scattered Clouds
2:13 PM 84.2 °F 88.4 °F 69.8 °F 62% 30.12 in 10.0 mi SSW 11.5 mph 18.4 mph N/A   Scattered Clouds
2:34 PM 87.8 °F 92.6 °F 69.8 °F 55% 30.12 in 10.0 mi SW 10.4 mph 18.4 mph N/A   Scattered Clouds
2:53 PM 84.2 °F 88.4 °F 69.8 °F 62% 30.13 in 10.0 mi SW 15.0 mph - N/A   Scattered Clouds
3:13 PM 87.8 °F 92.6 °F 69.8 °F 55% 30.12 in 10.0 mi WSW 10.4 mph 19.6 mph N/A   Clear
3:34 PM 86.0 °F 88.2 °F 66.2 °F 51% 30.12 in 10.0 mi SW 16.1 mph 20.7 mph N/A   Scattered Clouds
3:53 PM 87.8 °F 90.4 °F 66.2 °F 49% 30.12 in 10.0 mi SW 15.0 mph 19.6 mph N/A   Scattered Clouds
4:13 PM 87.8 °F 90.4 °F 66.2 °F 49% 30.12 in 10.0 mi WSW 16.1 mph 20.7 mph N/A   Clear
4:33 PM 87.8 °F 90.4 °F 66.2 °F 49% 30.12 in 10.0 mi WSW 13.8 mph 18.4 mph N/A   Clear
4:53 PM 87.8 °F 89.4 °F 64.4 °F 46% 30.11 in 10.0 mi WSW 15.0 mph 19.6 mph N/A   Clear
5:13 PM 86.0 °F 87.3 °F 64.4 °F 48% 30.11 in 10.0 mi SW 12.7 mph 19.6 mph N/A   Scattered Clouds
5:20 PM 86.0 °F 88.2 °F 66.2 °F 51% 30.11 in 10.0 mi WSW 11.5 mph 19.6 mph N/A   Scattered Clouds
9:02 PM 75.2 °F - 66.2 °F 73% 30.13 in 10.0 mi West 4.6 mph - N/A   Clear
9:14 PM 75.2 °F - 66.2 °F 73% 30.14 in 10.0 mi West 3.5 mph - N/A   Clear
9:33 PM 73.4 °F - 66.2 °F 78% 30.15 in 10.0 mi West 4.6 mph - N/A   Clear
9:46 PM 73.4 °F - 66.2 °F 78% 30.15 in 10.0 mi West 3.5 mph - N/A   Clear
10:13 PM 71.6 °F - 66.2 °F 83% 30.15 in 10.0 mi Calm Calm - N/A   Clear
10:33 PM 71.6 °F - 66.2 °F 83% 30.14 in 10.0 mi Calm Calm - N/A   Clear
10:54 PM 71.6 °F - 66.2 °F 83% 30.14 in 10.0 mi West 4.6 mph - N/A   Clear
11:13 PM 71.6 °F - 66.2 °F 83% 30.15 in 10.0 mi WSW 5.8 mph - N/A   Clear
11:33 PM 69.8 °F - 64.4 °F 83% 30.15 in 10.0 mi Calm Calm - N/A   Clear
11:54 PM 69.8 °F - 64.4 °F 83% 30.15 in 5.0 mi Calm Calm - N/A   Haze